This is the latest recevied weather packets stored in our database for station/object KB1FFS. If no packets are shown the sender has not sent any weather packets the latest 10 day(s).
| Time | Temp. | Humidity | Pressure | Rain* | Wind** | Luminosity | Snow |
|---|---|---|---|---|---|---|---|
| 1787853074 | 37.22° C | 43% | 1017.5 hPa | 0 mm | - | 637 W/m² | - |
| 1787852769 | 37.22° C | 42% | 1017.3 hPa | 0 mm | - | 780 W/m² | - |
| 1787852467 | 37.22° C | 42% | 1017.3 hPa | 0 mm | - | 762 W/m² | - |
| 1787852167 | 37.78° C | 42% | 1017.6 hPa | 0 mm | - | 740 W/m² | - |
| 1787851862 | 37.22° C | 43% | 1017.4 hPa | 0 mm | - | 740 W/m² | - |
| 1787851561 | 37.22° C | 42% | 1017.5 hPa | 0 mm | - | 733 W/m² | - |
| 1787851256 | 36.67° C | 45% | 1017.5 hPa | 0 mm | - | 738 W/m² | - |
| 1787850951 | 36.67° C | 44% | 1017.5 hPa | 0 mm | - | 593 W/m² | - |
| 1787850647 | 36.67° C | 43% | 1017.4 hPa | 0 mm | - | 521 W/m² | - |
| 1787850342 | 36.67° C | 44% | 1017.7 hPa | 0 mm | - | 555 W/m² | - |
| 1787850033 | 37.22° C | 45% | 1017.9 hPa | 0 mm | - | 617 W/m² | - |
| 1787849731 | 37.22° C | 43% | 1017.6 hPa | 0 mm | - | 668 W/m² | - |
| 1787849427 | 36.67° C | 46% | 1017.8 hPa | 0 mm | - | 700 W/m² | - |
| 1787849126 | 36.11° C | 45% | 1017.8 hPa | 0 mm | - | 682 W/m² | - |
| 1787848821 | 36.11° C | 49% | 1017.9 hPa | 0 mm | - | 659 W/m² | - |
| 1787848520 | 36.11° C | 46% | 1017.8 hPa | 0 mm | - | 646 W/m² | - |
| 1787848214 | 35.56° C | 48% | 1017.7 hPa | 0 mm | - | 638 W/m² | - |
| 1787847914 | 35.56° C | 48% | 1017.7 hPa | 0 mm | - | 628 W/m² | - |
| 1787847609 | 35.56° C | 49% | 1017.7 hPa | 0 mm | - | 619 W/m² | - |
| 1787847304 | 35° C | 49% | 1017.8 hPa | 0 mm | - | 615 W/m² | - |
| 1787847001 | 35° C | 51% | 1017.8 hPa | 0 mm | - | 593 W/m² | - |
| 1787846700 | 35° C | 51% | 1017.6 hPa | 0 mm | - | 572 W/m² | - |
| 1787846395 | 35° C | 52% | 1017.7 hPa | 0 mm | - | 562 W/m² | - |
| 1787846091 | 34.44° C | 54% | 1017.8 hPa | 0 mm | - | 547 W/m² | - |
| 1787845787 | 34.44° C | 55% | 1017.8 hPa | 0 mm | - | 533 W/m² | - |
* Rain latest hour (hover to see other rain measurements)
** Current wind speed in m/s (hover to see current wind gust speed)